TimeEST,TemperatureF,Dew PointF,Humidity,Sea Level PressureIn,VisibilityMPH,Wind Direction,Wind SpeedMPH,Gust SpeedMPH,PrecipitationIn,Events,Conditions,WindDirDegrees,DateUTC
12:15 AM,48.2,42.8,82,30.51,10.0,NNE,8.1,-,N/A,,Mostly Cloudy,30,2012-11-18 05:15:00
12:35 AM,48.2,44.6,87,30.50,10.0,NNE,8.1,-,N/A,,Mostly Cloudy,30,2012-11-18 05:35:00
12:58 AM,48.2,42.8,82,30.50,10.0,NNE,9.2,-,N/A,,Mostly Cloudy,20,2012-11-18 05:58:00
1:15 AM,48.2,42.8,82,30.49,10.0,NNE,9.2,-,N/A,,Scattered Clouds,20,2012-11-18 06:15:00
1:35 AM,46.4,42.8,87,30.49,10.0,NNE,9.2,-,N/A,,Clear,20,2012-11-18 06:35:00
1:55 AM,46.4,42.8,87,30.49,10.0,NNE,6.9,-,N/A,,Clear,20,2012-11-18 06:55:00
2:15 AM,48.2,42.8,82,30.49,10.0,NNE,8.1,-,N/A,,Clear,20,2012-11-18 07:15:00
2:35 AM,48.2,42.8,82,30.49,10.0,NE,11.5,-,N/A,,Clear,40,2012-11-18 07:35:00
2:56 AM,48.2,42.8,82,30.49,10.0,NNE,10.4,17.3,N/A,,Unknown,30,2012-11-18 07:56:00
3:15 AM,48.2,42.8,82,30.49,10.0,NNE,9.2,18.4,N/A,,Clear,30,2012-11-18 08:15:00
3:36 AM,48.2,42.8,82,30.49,10.0,NNE,8.1,-,N/A,,Clear,30,2012-11-18 08:36:00
3:55 AM,48.2,42.8,82,30.48,10.0,NE,10.4,16.1,N/A,,Clear,40,2012-11-18 08:55:00
4:15 AM,48.2,42.8,82,30.48,10.0,NNE,11.5,17.3,N/A,,Clear,30,2012-11-18 09:15:00
4:35 AM,48.2,42.8,82,30.48,10.0,NE,10.4,18.4,N/A,,Clear,40,2012-11-18 09:35:00
4:55 AM,50.0,42.8,76,30.48,10.0,NE,12.7,20.7,N/A,,Clear,40,2012-11-18 09:55:00
5:15 AM,50.0,42.8,76,30.48,10.0,NE,12.7,21.9,N/A,,Clear,40,2012-11-18 10:15:00
5:35 AM,50.0,44.6,82,30.48,10.0,NE,12.7,19.6,N/A,,Clear,40,2012-11-18 10:35:00
6:15 AM,50.0,44.6,82,30.49,10.0,NE,12.7,17.3,N/A,,Clear,50,2012-11-18 11:15:00
6:35 AM,50.0,44.6,82,30.50,10.0,NE,11.5,16.1,N/A,,Clear,40,2012-11-18 11:35:00
6:55 AM,50.0,44.6,82,30.50,10.0,NE,13.8,-,N/A,,Clear,40,2012-11-18 11:55:00
7:15 AM,50.0,44.6,82,30.50,10.0,NE,11.5,17.3,N/A,,Clear,40,2012-11-18 12:15:00
7:35 AM,50.0,44.6,82,30.50,10.0,NE,10.4,18.4,N/A,,Clear,40,2012-11-18 12:35:00
7:55 AM,51.8,44.6,76,30.50,10.0,NE,12.7,19.6,N/A,,Clear,40,2012-11-18 12:55:00
8:15 AM,51.8,44.6,76,30.50,10.0,NE,13.8,23.0,N/A,,Clear,50,2012-11-18 13:15:00
8:35 AM,53.6,44.6,72,30.50,10.0,NE,11.5,23.0,N/A,,Clear,50,2012-11-18 13:35:00
8:56 AM,53.6,44.6,72,30.50,10.0,ENE,19.6,28.8,N/A,,Clear,60,2012-11-18 13:56:00
9:15 AM,55.4,44.6,67,30.49,10.0,NE,19.6,27.6,N/A,,Clear,50,2012-11-18 14:15:00
9:35 AM,55.4,44.6,67,30.50,10.0,ENE,20.7,29.9,N/A,,Clear,60,2012-11-18 14:35:00
9:55 AM,55.4,44.6,67,30.50,10.0,ENE,23.0,31.1,N/A,,Clear,60,2012-11-18 14:55:00
10:15 AM,57.2,44.6,63,30.49,10.0,NE,19.6,29.9,N/A,,Clear,50,2012-11-18 15:15:00
10:35 AM,57.2,44.6,63,30.49,10.0,NE,16.1,29.9,N/A,,Clear,40,2012-11-18 15:35:00
10:55 AM,57.2,44.6,63,30.49,10.0,ENE,19.6,31.1,N/A,,Clear,60,2012-11-18 15:55:00
11:15 AM,57.2,44.6,63,30.49,10.0,NE,18.4,32.2,N/A,,Clear,50,2012-11-18 16:15:00
11:36 AM,57.2,44.6,63,30.48,10.0,NE,21.9,27.6,N/A,,Clear,50,2012-11-18 16:36:00
11:55 AM,57.2,44.6,63,30.47,10.0,NE,17.3,27.6,N/A,,Clear,40,2012-11-18 16:55:00
12:15 PM,57.2,44.6,63,30.46,10.0,ENE,23.0,27.6,N/A,,Clear,60,2012-11-18 17:15:00
12:35 PM,57.2,44.6,63,30.46,10.0,NE,20.7,29.9,N/A,,Clear,50,2012-11-18 17:35:00
12:55 PM,57.2,44.6,63,30.46,10.0,NE,20.7,29.9,N/A,,Clear,50,2012-11-18 17:55:00
1:15 PM,57.2,44.6,63,30.45,10.0,ENE,19.6,27.6,N/A,,Clear,60,2012-11-18 18:15:00
1:36 PM,57.2,44.6,63,30.45,10.0,NE,26.5,34.5,N/A,,Clear,50,2012-11-18 18:36:00
1:55 PM,59.0,44.6,59,30.45,10.0,ENE,21.9,25.3,N/A,,Clear,60,2012-11-18 18:55:00
2:15 PM,57.2,44.6,63,30.44,10.0,NE,20.7,28.8,N/A,,Clear,50,2012-11-18 19:15:00
2:36 PM,57.2,46.4,67,30.44,10.0,NE,16.1,32.2,N/A,,Clear,50,2012-11-18 19:36:00
2:55 PM,57.2,46.4,67,30.44,10.0,NE,20.7,28.8,N/A,,Clear,50,2012-11-18 19:55:00
3:16 PM,57.2,46.4,67,30.44,10.0,ENE,21.9,33.4,N/A,,Clear,60,2012-11-18 20:16:00
3:35 PM,55.4,46.4,72,30.45,10.0,NE,16.1,27.6,N/A,,Scattered Clouds,50,2012-11-18 20:35:00
3:56 PM,55.4,44.6,67,30.44,10.0,NE,17.3,28.8,N/A,,Mostly Cloudy,40,2012-11-18 20:56:00
4:15 PM,55.4,44.6,67,30.44,10.0,NE,23.0,27.6,N/A,,Clear,40,2012-11-18 21:15:00
4:35 PM,55.4,44.6,67,30.44,10.0,NE,17.3,25.3,N/A,,Mostly Cloudy,40,2012-11-18 21:35:00
4:55 PM,55.4,44.6,67,30.44,10.0,NE,16.1,24.2,N/A,,Overcast,40,2012-11-18 21:55:00
5:15 PM,55.4,44.6,67,30.44,10.0,NE,18.4,24.2,N/A,,Overcast,50,2012-11-18 22:15:00
5:36 PM,53.6,44.6,72,30.44,10.0,NE,13.8,26.5,N/A,,Overcast,40,2012-11-18 22:36:00
5:55 PM,53.6,44.6,72,30.44,10.0,NE,18.4,29.9,N/A,,Overcast,50,2012-11-18 22:55:00
6:15 PM,53.6,44.6,72,30.44,10.0,NE,15.0,25.3,N/A,,Mostly Cloudy,40,2012-11-18 23:15:00
6:35 PM,53.6,44.6,72,30.44,10.0,NE,16.1,26.5,N/A,,Scattered Clouds,40,2012-11-18 23:35:00
6:55 PM,53.6,46.4,77,30.44,10.0,NE,17.3,24.2,N/A,,Scattered Clouds,40,2012-11-18 23:55:00
7:15 PM,53.6,44.6,72,30.44,10.0,NE,15.0,21.9,N/A,,Clear,40,2012-11-19 00:15:00
7:35 PM,53.6,44.6,72,30.43,10.0,NE,13.8,24.2,N/A,,Clear,50,2012-11-19 00:35:00
7:55 PM,53.6,46.4,77,30.43,10.0,NE,12.7,24.2,N/A,,Clear,40,2012-11-19 00:55:00
8:15 PM,53.6,46.4,77,30.43,10.0,NE,16.1,26.5,N/A,,Clear,50,2012-11-19 01:15:00
8:35 PM,53.6,46.4,77,30.43,10.0,NE,15.0,24.2,N/A,,Clear,50,2012-11-19 01:35:00
8:55 PM,53.6,46.4,77,30.42,10.0,NE,17.3,24.2,N/A,,Clear,50,2012-11-19 01:55:00
9:15 PM,53.6,46.4,77,30.42,10.0,NE,11.5,23.0,N/A,,Scattered Clouds,40,2012-11-19 02:15:00
9:36 PM,53.6,46.4,77,30.42,10.0,NE,12.7,19.6,N/A,,Scattered Clouds,40,2012-11-19 02:36:00
9:55 PM,53.6,46.4,77,30.41,10.0,NNE,10.4,16.1,N/A,,Clear,30,2012-11-19 02:55:00
10:15 PM,53.6,46.4,77,30.42,10.0,NNE,9.2,18.4,N/A,,Scattered Clouds,30,2012-11-19 03:15:00
10:35 PM,53.6,46.4,77,30.41,10.0,NNE,13.8,21.9,N/A,,Overcast,30,2012-11-19 03:35:00
10:55 PM,53.6,46.4,77,30.41,10.0,NE,12.7,20.7,N/A,,Overcast,50,2012-11-19 03:55:00
11:15 PM,55.4,46.4,72,30.39,10.0,NE,16.1,24.2,N/A,,Overcast,40,2012-11-19 04:15:00
11:35 PM,55.4,46.4,72,30.39,10.0,NE,17.3,21.9,N/A,,Overcast,50,2012-11-19 04:35:00
11:55 PM,55.4,46.4,72,30.38,10.0,NE,16.1,24.2,N/A,,Overcast,40,2012-11-19 04:55:00